Alexandria, Egypt

12:33 AM EET on January 20, 2017 (GMT +0200)
Alexandria International

Weather History for HEAX - December, 2013

Change the Weather History Date:

Friday, December 20, 2013

  Actual Average Record
Temperature  
Mean Temperature 56 °F -  
Max Temperature 65 °F 64 °F 71 °F (1996)
Min Temperature 47 °F 48 °F 42 °F (2006)
Degree Days  
Heating Degree Days 9    
Growing Degree Days 6 (Base 50)    
Moisture  
Dew Point 51 °F    
Average Humidity 81    
Maximum Humidity 95    
Minimum Humidity 54    
Precipitation  
Precipitation 0.00 in 0.07 in - ()
Sea Level Pressure  
Sea Level Pressure 30.27 in    
Wind  
Wind Speed 2 mph ()    
Max Wind Speed 9 mph    
Max Gust Speed -    
Visibility 5.9 miles    
Events      
Averages and records for this station are not official NWS values.
T = Trace of Precipitation, MM = Missing Value Source: Averaged Metar Reports

Daily Weather History Graph

Daily Weather History Graph

Search for Another Location

Airport or City:

Trip Planner

Search our weather history database for the weather conditions in past years. The results will help you decide how hot, cold, wet, or windy it might be!

Date:

Astronomy

Dec. 20, 2013 Rise Set
Actual Time 6:54 AM EET 5:01 PM EET
Civil Twilight 6:27 AM EET 5:28 PM EET
Nautical Twilight 5:57 AM EET 5:58 PM EET
Astronomical Twilight 5:27 AM EET 6:28 PM EET
Moon 7:54 PM EET (12/20) 8:45 AM EET (12/20)
Length of Visible Light 11h 00m
Length of Day
10h 07m
Waning Gibbous, 92% of the Moon is Illuminated
Dec 20
Waning Gibbous
Dec 25
Last Quarter
Jan 1
New
Jan 8
First Quarter
Jan 16
Full

Hourly Weather History & Observations

Time (EET) Temp. Dew Point Humidity Pressure Visibility Wind Dir Wind Speed Gust Speed Precip Events Conditions
12:00 AM 51.8 °F 50.0 °F 94% 30.21 in 6.2 mi Calm Calm - N/A   Scattered Clouds
1:00 AM 50.0 °F 48.2 °F 94% 30.21 in 6.2 mi South 1.2 mph - N/A   Scattered Clouds
2:00 AM 55 °F 53 °F 88% 30.22 in 6 mi Calm Calm - -   Partly Cloudy
2:00 AM 55.4 °F 51.8 °F 88% 30.21 in 6.2 mi Calm Calm - N/A   Scattered Clouds
3:00 AM 51.8 °F 50.0 °F 94% 30.21 in 6.2 mi Calm Calm - N/A   Scattered Clouds
4:00 AM 51.8 °F 50.0 °F 94% 30.21 in 6.2 mi Calm Calm - N/A   Scattered Clouds
5:00 AM 49 °F 48 °F 95% 30.23 in 6 mi Calm Calm - -   Partly Cloudy
5:00 AM 50.0 °F 48.2 °F 94% 30.21 in 6.2 mi Calm Calm - N/A   Scattered Clouds
6:00 AM 50.0 °F 48.2 °F 94% 30.21 in 6.2 mi Calm Calm - N/A   Scattered Clouds
7:00 AM 48.2 °F 46.4 °F 93% 30.27 in 3.7 mi Calm Calm - N/A   Scattered Clouds
8:00 AM 51 °F 49 °F 92% 30.28 in 4 mi Calm Calm - -   Mist
8:00 AM 51.8 °F 50.0 °F 94% 30.27 in 3.7 mi Calm Calm - N/A   Scattered Clouds
9:00 AM 55.4 °F 51.8 °F 88% 30.27 in 3.7 mi Calm Calm - N/A   Scattered Clouds
10:00 AM 62.6 °F 53.6 °F 72% 30.30 in 6.2 mi West 4.6 mph - N/A   Scattered Clouds
11:00 AM 64 °F 51 °F 54% 30.31 in 6 mi WSW 5.8 mph - -   Partly Cloudy
11:00 AM 64.4 °F 51.8 °F 64% 30.30 in 6.2 mi WSW 5.8 mph - N/A   Scattered Clouds
12:00 PM 64.4 °F 51.8 °F 64% 30.30 in 6.2 mi NW 3.5 mph - N/A   Scattered Clouds
1:00 PM 62.6 °F 53.6 °F 72% 30.27 in 6.2 mi WNW 9.2 mph - N/A   Scattered Clouds
2:00 PM 63 °F 53 °F 62% 30.27 in 6 mi NW 5.8 mph - -   Mostly Cloudy
2:00 PM 62.6 °F 53.6 °F 72% 30.27 in 6.2 mi NW 5.8 mph - N/A   Scattered Clouds
3:00 PM 62.6 °F 51.8 °F 68% 30.27 in 6.2 mi NW 5.8 mph - N/A   Scattered Clouds
4:00 PM 62.6 °F 51.8 °F 68% 30.27 in 6.2 mi NNW 5.8 mph - N/A   Scattered Clouds
5:00 PM 61 °F 51 °F 61% 30.29 in 6 mi North 3.5 mph - -   Mostly Cloudy
5:00 PM 60.8 °F 51.8 °F 72% 30.27 in 6.2 mi North 3.5 mph - N/A   Scattered Clouds
6:00 PM 59.0 °F 50.0 °F 72% 30.27 in 6.2 mi North 3.5 mph - N/A   Scattered Clouds
7:00 PM 57.2 °F 51.8 °F 82% 30.30 in 6.2 mi NNE 4.6 mph - N/A   Partly Cloudy
8:00 PM 58 °F 51 °F 71% 30.33 in 6 mi NNE 4.6 mph - -   Scattered Clouds
8:00 PM 57.2 °F 51.8 °F 82% 30.33 in 6.2 mi NNE 4.6 mph - N/A   Partly Cloudy
9:00 PM 55.4 °F 50.0 °F 82% 30.33 in 6.2 mi NNE 4.6 mph - N/A   Partly Cloudy
10:00 PM 51.8 °F 48.2 °F 88% 30.33 in 6.2 mi NE 3.5 mph - N/A   Partly Cloudy
11:00 PM 51 °F 49 °F 90% 30.34 in 6 mi NE 3.5 mph - -   Scattered Clouds
11:00 PM 51.8 °F 48.2 °F 88% 30.33 in 6.2 mi NE 3.5 mph - N/A   Partly Cloudy